Theta_e
332 329 327 326 326 325 325 324 323 322 320 319 317 316 314 312 310 308 308 307 306 305 305 305 306 306 307 307 307 306 306 306 305 305 304 303 303 303 302 302 307 308 308
328 327 326 325 324 323 322 321 320 318 317 315 313 312 309 308 308 307 306 305 304 303 302 304 305 306 306 305 305 305 305 304 304 303 303 302 302 302 301 301 303 302 303
326 325 324 324 323 321 319 318 317 315 312 311 309 308 308 308 307 306 305 304 302 301 302 303 305 305 304 304 304 303 303 302 301 302 302 302 301 301 301 301 301 301 301
325 324 322 320 319 317 315 313 311 309 308 307 307 308 308 307 306 304 304 302 301 301 302 303 304 304 303 303 303 302 302 302 301 301 301 302 302 302 301 301 301 301 302
323 320 317 315 313 311 309 308 307 307 307 307 307 306 305 305 304 304 302 301 300 301 302 303 303 303 303 302 302 303 302 302 302 301 302 302 302 302 302 301 301 302 301
312 309 308 308 307 307 306 306 306 306 306 305 305 305 304 304 303 303 301 300 299 300 301 300 300 302 302 302 302 302 301 301 301 301 301 301 301 301 301 301 301 301 302
306 306 306 306 306 305 305 304 303 303 303 303 302 302 303 303 303 302 300 298 298 299 298 298 298 300 301 301 300 300 302 301 300 300 300 300 300 300 300 300 301 301 301
305 305 304 304 304 303 302 301 301 301 301 301 301 301 301 302 301 299 298 298 298 298 297 297 297 299 301 299 300 301 301 300 299 300 300 300 300 300 299 299 299 299 299
303 303 303 302 301 300 300 300 300 301 301 301 300 300 301 300 298 297 296 296 296 296 296 296 297 298 299 298 299 299 299 299 298 297 298 299 299 300 300 298 298 299 299
301 301 300 300 300 299 299 299 300 300 298 298 298 297 297 296 295 294 293 293 293 293 295 296 297 297 297 298 298 298 298 297 296 297 298 298 299 299 300 299 299 299 299
299 299 298 298 298 299 298 298 297 296 296 295 295 294 294 293 293 292 292 292 291 291 293 295 296 296 297 298 297 297 296 296 296 296 297 297 298 299 300 300 300 300 299
297 296 296 297 297 297 296 295 294 294 293 292 292 292 291 291 291 291 291 291 291 291 293 293 295 297 296 297 296 296 296 295 295 295 296 296 297 297 297 299 300 300 300
296 295 295 295 296 296 295 294 293 293 292 291 290 290 290 291 290 290 291 295 295 292 292 293 295 295 295 295 294 295 295 295 295 295 295 295 295 295 296 298 300 300 300
295 295 295 295 295 296 295 294 293 292 292 291 290 289 290 290 290 289 290 293 294 295 294 294 293 293 293 293 294 294 294 294 294 294 294 294 293 294 295 297 300 300 300
294 294 294 295 295 295 294 293 293 292 292 291 290 290 289 289 290 289 289 290 292 292 292 291 291 291 291 292 293 293 293 293 293 292 292 292 292 293 295 297 300 300 300
294 294 294 294 293 293 293 292 293 292 292 291 290 290 290 290 290 290 290 290 290 290 290 290 290 290 291 291 291 291 292 292 292 291 290 290 291 292 294 296 300 300 300
293 293 293 293 293 292 292 292 291 291 291 290 289 290 290 290 290 290 290 290 290 290 290 289 289 289 290 290 290 290 291 291 290 289 289 289 290 291 292 295 299 301 300
293 293 293 293 292 292 291 291 290 290 290 290 289 289 289 289 288 289 289 289 290 290 290 290 290 289 289 289 289 289 290 289 288 288 288 288 289 290 291 293 296 301 301
293 293 294 293 292 291 291 290 290 290 290 290 288 288 288 288 288 289 289 288 289 289 290 290 290 289 289 289 287 287 287 287 287 287 287 287 288 289 291 293 295 298 302
295 295 294 293 292 292 291 290 290 289 289 288 288 287 287 287 287 287 288 288 288 289 290 290 290 289 289 287 286 285 285 285 285 285 286 287 288 290 291 294 298 305 305
294 293 292 292 292 291 290 289 289 288 288 287 287 286 286 286 286 286 287 287 288 289 289 289 287 288 287 285 284 284 284 284 284 284 285 287 288 290 294 298 303 308 307
292 292 292 291 290 289 289 289 288 287 287 286 286 286 286 286 286 286 286 286 287 287 287 286 286 286 285 283 283 282 282 283 283 284 285 287 289 292 297 302 307 308 307
291 291 291 290 289 288 288 287 287 286 286 285 285 285 285 285 285 285 285 285 285 285 286 285 284 284 284 282 281 281 282 282 283 284 285 287 289 292 297 304 308 307 306
291 290 290 289 288 287 287 286 286 286 285 284 285 284 284 284 284 284 284 284 284 284 284 284 283 283 282 281 281 281 281 282 284 285 287 287 289 292 296 302 307 305 304
290 289 289 288 287 286 285 285 285 285 284 283 284 284 283 283 283 283 283 283 283 282 282 282 282 282 281 281 281 281 282 284 286 287 288 288 289 291 294 299 304 305 303
289 288 288 287 286 285 285 284 284 284 284 283 283 283 283 282 282 282 282 281 281 282 282 281 281 281 281 280 280 280 281 284 286 288 288 288 289 291 293 296 301 305 305
Wind_Speed
33 35 35 34 34 32 27 21 15 10 7 6 4 4 7 11 13 13 9 10 13 16 15 14 13 13 14 14 15 17 15 15 10 18 22 24 26 27 28 28 22 23 21
38 36 35 34 31 28 23 17 11 9 6 4 6 8 9 10 9 9 10 13 17 18 15 12 12 13 13 17 16 14 14 17 16 16 22 22 21 21 24 26 22 24 24
35 36 31 28 24 22 18 13 8 5 5 6 7 9 7 6 7 11 12 15 18 16 12 10 12 12 17 15 14 16 15 17 19 15 20 20 21 21 22 22 22 22 23
38 32 28 24 22 17 14 10 8 7 8 9 9 7 5 5 10 11 14 16 19 13 12 11 9 13 16 14 14 16 19 22 19 18 18 20 19 20 18 19 21 20 22
33 30 28 25 21 17 13 10 7 7 9 8 7 6 8 9 9 13 14 16 21 15 15 15 14 13 11 14 16 19 19 19 20 20 19 19 18 16 16 17 17 20 23
32 34 28 24 20 16 12 9 8 9 9 9 10 9 8 8 8 12 14 18 19 15 17 16 15 12 14 18 17 20 24 22 23 20 21 18 21 18 19 15 16 16 5
28 27 24 21 18 15 11 10 11 11 10 11 9 7 7 7 9 11 14 16 18 16 16 21 18 14 17 18 27 31 30 27 23 23 23 24 23 22 21 21 17 15 17
24 22 19 17 17 14 12 13 12 10 9 8 9 10 10 10 9 11 15 16 17 16 19 21 16 15 14 26 32 31 31 30 25 22 23 27 27 27 24 24 24 22 19
22 20 17 17 16 14 16 12 9 9 11 9 9 12 10 8 10 15 17 19 21 22 22 20 14 15 18 27 28 28 29 27 27 27 25 24 23 23 23 25 19 13 7
19 19 17 17 17 16 14 14 11 11 11 10 11 15 14 11 14 17 23 23 24 25 24 19 14 14 22 24 23 24 23 30 34 34 28 24 23 22 21 18 19 13 10
16 17 15 15 15 14 15 17 14 12 14 15 14 14 14 16 17 22 24 23 23 23 21 22 20 21 21 23 19 19 25 29 30 26 26 24 23 21 21 22 19 17 13
20 18 17 16 19 18 17 18 19 18 17 18 18 17 18 19 20 24 28 23 20 18 19 20 19 19 22 21 21 22 26 27 24 24 22 22 23 24 25 23 23 19 17
19 18 18 18 17 16 16 17 19 21 20 20 22 20 21 21 23 30 26 25 21 16 14 16 16 19 21 22 23 24 27 26 25 24 24 24 25 27 26 22 18 15 13
18 18 17 17 17 17 16 15 16 18 17 16 15 19 18 20 25 31 26 24 24 19 14 17 18 19 19 20 24 24 25 24 25 24 25 26 25 25 23 21 17 12 10
18 16 15 16 17 18 18 17 13 15 16 16 18 18 16 18 22 25 22 22 18 18 19 19 18 22 22 23 24 27 28 27 26 26 25 25 24 22 21 20 14 9 7
16 15 15 16 16 15 14 17 17 12 14 16 17 16 16 16 18 21 21 24 25 20 19 18 18 20 21 23 24 29 27 28 28 28 25 23 23 22 21 22 13 9 8
15 14 14 14 14 15 15 14 13 12 11 15 18 18 16 16 18 19 19 22 24 26 21 19 19 20 22 24 25 26 28 28 29 26 25 24 23 22 21 19 15 10 8
9 7 7 8 10 11 11 11 13 14 12 15 20 19 17 16 17 17 19 22 25 23 22 21 20 21 23 24 28 28 28 30 29 27 26 24 24 21 22 17 16 12 8
6 4 3 3 8 11 10 9 9 10 12 12 18 20 20 18 19 22 26 24 22 24 21 22 22 21 23 27 28 27 27 27 28 28 27 27 27 25 24 19 18 16 13
6 2 3 6 7 9 8 9 11 13 14 15 19 20 20 21 26 28 29 27 25 26 20 22 25 22 24 28 28 28 29 29 30 30 29 28 27 25 23 23 23 17 3
11 14 14 12 16 14 12 13 13 14 14 16 17 18 20 23 24 25 27 28 29 27 25 23 25 22 26 28 28 29 29 29 30 31 31 31 31 28 27 24 19 11 9
14 15 16 17 17 16 15 15 15 15 16 17 17 18 20 23 25 26 27 28 28 26 26 27 27 23 24 28 29 30 30 32 35 35 34 34 32 29 26 21 13 9 8
16 17 17 17 18 16 17 16 15 15 16 17 19 21 23 24 24 25 26 26 26 26 25 28 26 27 31 30 30 31 32 35 37 35 36 33 31 29 26 21 12 10 8
18 19 19 18 17 16 16 16 15 16 17 17 18 21 22 24 24 24 25 25 25 25 25 25 27 27 32 30 34 35 36 37 36 35 32 31 29 29 24 21 15 11 9
16 18 17 17 15 15 14 14 14 15 17 18 18 20 22 23 24 24 23 25 25 26 27 27 29 29 31 30 36 38 38 37 36 36 35 33 30 28 23 23 18 13 11
15 16 17 16 15 15 14 15 15 15 15 17 17 18 20 22 23 24 24 26 28 28 27 29 31 30 30 35 36 37 40 40 38 38 38 37 35 32 30 27 24 14 9
Wind_Direction
134 130 131 133 128 125 123 122 118 111 88 66 38 2 347 338 338 345 360 354 350 345 346 345 348 354 348 351 344 339 336 336 319 320 321 326 328 328 331 340 349 351 345
129 132 129 126 118 114 114 109 108 94 74 42 9 351 342 337 354 13 9 358 353 349 345 351 357 354 349 348 346 336 340 337 337 323 320 321 319 327 325 330 333 334 327
124 121 117 113 113 108 105 103 98 82 61 24 353 354 355 14 18 17 6 359 356 354 351 351 355 347 349 340 342 339 339 331 324 306 306 310 308 315 319 322 326 329 334
121 118 114 109 105 102 97 88 69 46 18 5 12 359 30 31 11 9 1 359 359 356 360 357 360 341 336 337 339 338 330 324 318 310 304 303 305 309 310 313 321 326 325
125 122 120 117 113 112 104 87 66 28 22 27 51 34 18 10 10 357 354 3 354 2 8 10 355 340 346 340 334 327 325 315 316 312 304 306 306 310 304 304 300 310 313
110 113 114 110 109 101 96 84 58 53 46 30 29 30 20 1 0 349 1 360 359 4 8 4 355 350 341 336 340 328 321 315 310 303 298 299 300 301 301 295 294 297 307
93 105 109 104 99 90 78 55 42 31 34 39 27 17 7 3 356 357 1 5 6 7 4 354 347 347 348 349 337 331 327 328 318 300 293 291 293 296 298 294 288 281 282
94 96 95 100 94 85 65 53 53 58 48 32 23 14 13 3 16 5 1 2 1 354 351 352 348 349 355 343 336 333 333 331 327 312 298 292 289 291 285 285 285 284 284
84 83 91 89 80 71 69 63 59 53 38 23 19 17 34 55 27 12 3 357 349 342 343 350 351 348 341 342 341 339 333 328 324 318 316 311 307 300 296 291 279 267 278
81 84 84 78 71 69 64 54 44 49 40 33 50 53 55 50 22 5 360 353 345 341 340 344 343 341 335 344 347 341 328 327 328 330 326 319 314 316 317 299 284 258 261
89 85 80 76 72 70 68 73 67 56 54 58 45 39 34 18 3 357 356 355 348 337 336 337 337 337 339 342 347 340 329 333 329 324 320 322 323 316 307 312 304 272 248
87 85 82 81 83 83 82 62 54 55 53 38 32 27 15 10 6 0 355 354 347 330 329 332 335 341 339 346 347 341 344 342 331 325 322 325 325 323 319 315 303 290 270
90 83 76 79 78 76 77 66 61 58 55 47 37 24 17 18 9 359 5 5 357 333 329 337 344 344 347 349 350 347 348 340 335 331 328 325 322 319 321 320 315 302 285
89 81 76 70 67 72 77 65 65 58 52 45 31 19 14 10 9 5 5 14 19 20 15 359 356 352 354 353 351 347 346 339 335 329 327 324 324 326 322 323 310 295 277
87 82 77 73 72 75 70 59 68 66 55 51 32 22 13 8 10 11 14 6 6 6 1 4 358 358 352 354 351 350 342 340 340 337 332 329 328 327 322 329 314 297 260
93 88 79 74 71 67 67 67 61 63 45 40 32 25 23 22 14 20 26 31 28 24 24 10 359 356 353 351 348 341 337 337 340 335 332 330 326 326 322 322 315 284 266
101 103 93 81 72 68 64 58 53 58 54 41 35 33 30 22 18 17 17 28 27 26 19 9 3 358 355 348 345 336 330 334 335 334 331 328 325 321 319 316 309 277 260
91 79 73 80 82 79 77 77 64 52 33 33 30 32 30 24 24 22 18 18 10 15 14 7 358 355 351 351 345 336 334 335 336 335 333 330 326 321 318 316 312 282 248
70 67 40 141 111 94 89 79 67 55 40 50 31 34 27 29 36 36 31 16 360 357 357 360 356 350 354 351 342 337 337 335 335 336 336 334 330 325 320 316 305 301 247
11 6 164 130 149 112 83 69 62 62 55 46 38 33 26 35 31 24 22 13 5 3 356 3 358 358 358 349 343 343 343 342 343 343 339 335 331 328 321 323 328 331 206
114 114 115 94 106 111 88 75 78 72 57 47 40 35 35 37 28 21 15 13 12 12 14 5 4 1 355 350 349 349 346 344 345 342 340 338 337 331 336 341 348 35 76
116 108 115 101 110 95 88 85 84 71 60 50 38 37 37 38 32 23 19 17 14 16 16 12 6 5 354 353 355 352 350 348 347 346 342 341 340 338 337 343 7 36 74
113 104 116 104 110 99 89 86 77 67 60 51 43 41 39 34 30 21 19 15 15 13 13 10 5 5 355 5 4 1 356 351 349 350 345 344 342 342 348 348 11 21 40
108 108 110 109 104 94 89 84 76 68 58 48 46 42 39 36 30 22 20 14 16 13 15 10 6 8 357 5 5 6 5 6 6 4 6 354 349 352 359 8 3 26 42
110 106 109 111 102 94 86 79 75 68 58 50 47 43 40 37 31 26 19 15 18 16 17 15 11 11 2 3 6 10 14 19 18 19 17 12 7 7 13 13 14 37 53
112 108 110 109 100 93 88 81 72 65 59 48 45 41 38 35 30 27 23 20 20 20 19 15 13 13 10 10 5 7 16 21 22 25 25 20 16 18 21 16 26 25 37